ETD2 KJFK-OMAA

Flight info

Callsign ETD2
Flight time N/A
Altitude 33000
Route SHIPP Y487 ISLES DCT SLATN/M084F330 DCT 40N060W 41N050W 42N040W 4230N03000W 41N020W DCT GUNTI/N0488F330 DCT BUSEN DCT LASIB DCT ROSAL DCT SANTA M744 MGA/N0487F340 DCT NESDA/N0489F330 L112 AMR DCT GATAS DCT TARIK UA44 MOS UA411 DAHRA UZ444 BNA UA411 MORJA DCT SONAK DCT DINUX/N0485F350 DCT DEMAG DCT GUDIS DCT KAVOS DCT EVORA DCT LAKTO L560 SERMA L550 KARIK B411 DEESA Y415 TAMRO/N0492F370 N318 DASVA N685 ORSIS/N0493F350 N685 UMEVU Q415 UKILI
Aircraft A35K/H-SDE2E3GHIJ3J4J5LM1ORWXY/LB1D1

Departure

Time N/A
Airport John F. Kennedy International Airport (KJFK)

Arrival

Time 2026-05-04 12:33
Airport Zayed International Airport (OMAA)
Time Latitude Longitude Altitude Speed Heading
2026-05-04 11:33 26.27651 50.51061 36780 ft 569 kts 100°
2026-05-04 11:33 26.26568 50.59785 36791 ft 568 kts 100°
2026-05-04 11:34 26.24655 50.68185 36809 ft 561 kts 116°
2026-05-04 11:34 26.21566 50.76146 36800 ft 559 kts 118°
2026-05-04 11:35 26.18285 50.84063 36798 ft 559 kts 119°
2026-05-04 11:35 26.15066 50.91799 36791 ft 559 kts 118°
2026-05-04 11:36 26.12618 50.97734 36792 ft 559 kts 118°
2026-05-04 11:36 26.09353 51.05513 36791 ft 558 kts 120°
2026-05-04 11:37 26.05761 51.13142 36791 ft 556 kts 122°
2026-05-04 11:37 26.02117 51.20717 36778 ft 556 kts 122°
2026-05-04 11:38 25.98507 51.28337 36786 ft 556 kts 121°
2026-05-04 11:38 25.94916 51.35940 36787 ft 556 kts 122°
2026-05-04 11:39 25.91252 51.43504 36782 ft 556 kts 122°
2026-05-04 11:41 25.78391 51.69962 36779 ft 556 kts 122°
2026-05-04 11:41 25.74653 51.77465 36776 ft 556 kts 123°
2026-05-04 11:42 25.70827 51.84906 36766 ft 556 kts 123°
2026-05-04 11:42 25.66874 51.92257 36762 ft 554 kts 126°
2026-05-04 11:43 25.62728 51.99450 36763 ft 554 kts 126°
2026-05-04 11:43 25.58589 52.06655 36763 ft 554 kts 126°
2026-05-04 11:43 25.56549 52.10244 36605 ft 549 kts 126°
2026-05-04 11:44 25.54510 52.13843 36537 ft 552 kts 126°
2026-05-04 11:44 25.50422 52.21069 36524 ft 555 kts 126°
2026-05-04 11:45 25.46423 52.28391 36526 ft 558 kts 121°
2026-05-04 11:45 25.42890 52.36033 36528 ft 559 kts 120°
2026-05-04 11:46 25.39431 52.43740 36514 ft 559 kts 119°
2026-05-04 11:46 25.35824 52.51318 36658 ft 555 kts 122°
2026-05-04 11:47 25.32043 52.58767 36733 ft 556 kts 122°
2026-05-04 11:47 25.28275 52.66213 36749 ft 557 kts 122°
2026-05-04 11:48 25.24688 52.73728 36863 ft 557 kts 117°
2026-05-04 11:48 25.21563 52.81630 36873 ft 559 kts 115°
2026-05-04 11:49 25.18501 52.89521 36873 ft 559 kts 116°
2026-05-04 11:49 25.16972 52.93368 36769 ft 551 kts 116°
2026-05-04 11:49 25.15423 52.97208 36611 ft 545 kts 117°
2026-05-04 11:49 25.13887 53.00978 36476 ft 540 kts 117°
2026-05-04 11:50 25.12343 53.04749 36250 ft 538 kts 117°
2026-05-04 11:50 25.10805 53.08493 35983 ft 536 kts 117°
2026-05-04 11:50 25.09098 53.12139 35668 ft 532 kts 127°
2026-05-04 11:50 25.07060 53.15544 35368 ft 531 kts 127°
2026-05-04 11:51 25.04974 53.18894 35135 ft 529 kts 128°
2026-05-04 11:51 25.03574 53.21098 34975 ft 528 kts 128°
2026-05-04 11:51 25.01457 53.24404 34789 ft 526 kts 128°
2026-05-04 11:51 24.98638 53.28803 34504 ft 525 kts 128°
2026-05-04 11:52 24.97247 53.30978 34378 ft 524 kts 128°
2026-05-04 11:52 24.93069 53.37539 34161 ft 521 kts 128°
2026-05-04 11:52 24.90993 53.40797 33984 ft 519 kts 129°
2026-05-04 11:53 24.88717 53.43866 33796 ft 514 kts 137°
2026-05-04 11:53 24.86127 53.46459 33619 ft 506 kts 147°
2026-05-04 11:53 24.83150 53.48543 33501 ft 496 kts 158°
2026-05-04 11:53 24.79984 53.49937 33374 ft 488 kts 169°
2026-05-04 11:55 24.60475 53.42330 32494 ft 429 kts 239°
2026-05-04 11:55 24.59031 53.39481 32366 ft 425 kts 248°
2026-05-04 11:56 24.58042 53.36443 32243 ft 422 kts 257°
2026-05-04 11:56 24.57514 53.33276 32125 ft 420 kts 265°
2026-05-04 11:56 24.57453 53.30074 31997 ft 420 kts 274°
2026-05-04 11:56 24.57852 53.26899 31877 ft 420 kts 282°
2026-05-04 11:57 24.58702 53.23822 31756 ft 421 kts 290°
2026-05-04 11:57 24.60010 53.20936 31637 ft 424 kts 299°
2026-05-04 11:57 24.61646 53.18232 31514 ft 425 kts 302°
2026-05-04 11:57 24.63365 53.15589 31410 ft 426 kts 303°
2026-05-04 11:58 24.65100 53.12944 31277 ft 426 kts 302°
2026-05-04 11:58 24.66763 53.10307 31174 ft 426 kts 302°
2026-05-04 11:58 24.68616 53.07683 30940 ft 431 kts 308°
2026-05-04 11:58 24.70716 53.05288 30528 ft 442 kts 313°
2026-05-04 11:59 24.73050 53.03040 30204 ft 449 kts 318°
2026-05-04 11:59 24.75644 53.01086 29956 ft 456 kts 327°
2026-05-04 11:59 24.78534 52.99691 29696 ft 466 kts 339°
2026-05-04 11:59 24.81753 52.99072 29419 ft 477 kts 354°
2026-05-04 12:00 24.85082 52.99385 29212 ft 486 kts
2026-05-04 12:00 24.88348 53.00598 29082 ft 493 kts 21°
2026-05-04 12:00 24.91283 53.02490 28955 ft 498 kts 32°
2026-05-04 12:00 24.93946 53.05034 28831 ft 503 kts 43°
2026-05-04 12:01 24.96157 53.08040 28706 ft 506 kts 54°
2026-05-04 12:01 24.97877 53.11422 28590 ft 509 kts 64°
2026-05-04 12:02 24.95672 53.33448 27992 ft 500 kts 125°
2026-05-04 12:03 24.93757 53.36642 27953 ft 497 kts 127°
2026-05-04 12:03 24.91792 53.39778 27895 ft 496 kts 127°
2026-05-04 12:03 24.89889 53.42931 27792 ft 496 kts 124°
2026-05-04 12:03 24.88109 53.46195 27731 ft 497 kts 122°
2026-05-04 12:04 24.86415 53.49502 27664 ft 496 kts 121°
2026-05-04 12:04 24.84746 53.52852 27430 ft 499 kts 121°
2026-05-04 12:04 24.83070 53.56232 26838 ft 510 kts 120°
2026-05-04 12:04 24.81346 53.59696 26183 ft 521 kts 121°
2026-05-04 12:05 24.79591 53.63198 25883 ft 522 kts 121°
2026-05-04 12:05 24.77837 53.66679 25712 ft 518 kts 121°
2026-05-04 12:05 24.76086 53.70143 25474 ft 518 kts 121°
2026-05-04 12:05 24.74333 53.73600 25222 ft 518 kts 121°
2026-05-04 12:06 24.72570 53.77061 25015 ft 516 kts 121°
2026-05-04 12:06 24.70820 53.80497 24835 ft 515 kts 121°
2026-05-04 12:06 24.69074 53.83923 24667 ft 513 kts 121°
2026-05-04 12:06 24.67332 53.87341 24472 ft 511 kts 121°
2026-05-04 12:07 24.65603 53.90731 24289 ft 509 kts 121°
2026-05-04 12:07 24.63868 53.94130 24108 ft 507 kts 121°
2026-05-04 12:07 24.62241 53.97553 23875 ft 506 kts 116°
2026-05-04 12:07 24.60823 54.01079 23675 ft 504 kts 115°
2026-05-04 12:08 24.59413 54.04608 23471 ft 502 kts 115°
2026-05-04 12:08 24.57993 54.08104 23317 ft 500 kts 115°
2026-05-04 12:08 24.56574 54.11555 23211 ft 496 kts 115°
2026-05-04 12:08 24.55146 54.15003 23111 ft 492 kts 116°
2026-05-04 12:09 24.53734 54.18403 23012 ft 488 kts 116°
2026-05-04 12:09 24.52373 54.21793 22904 ft 485 kts 112°
2026-05-04 12:09 24.51201 54.25248 22810 ft 481 kts 111°
2026-05-04 12:09 24.50059 54.28696 22717 ft 478 kts 111°
2026-05-04 12:10 24.48908 54.32109 22633 ft 475 kts 111°
2026-05-04 12:10 24.47755 54.35489 22544 ft 472 kts 111°
2026-05-04 12:10 24.46609 54.38840 22452 ft 470 kts 111°
2026-05-04 12:10 24.45437 54.42228 22551 ft 480 kts 111°
2026-05-04 12:11 24.44230 54.45706 22545 ft 492 kts 111°
2026-05-04 12:11 24.43001 54.49245 22640 ft 501 kts 111°
2026-05-04 12:11 24.41726 54.52832 22749 ft 505 kts 114°
2026-05-04 12:11 24.40076 54.56124 22645 ft 482 kts 127°
2026-05-04 12:12 24.37840 54.58715 22548 ft 460 kts 144°
2026-05-04 12:12 24.35928 54.60063 22471 ft 444 kts 156°
2026-05-04 12:12 24.33081 54.61081 22364 ft 421 kts 174°
2026-05-04 12:12 24.30247 54.61067 22268 ft 399 kts 194°
2026-05-04 12:13 24.27686 54.60040 22154 ft 389 kts 213°
2026-05-04 12:14 24.25286 54.41762 21290 ft 382 kts 294°
2026-05-04 12:15 24.26373 54.39083 21165 ft 382 kts 292°
2026-05-04 12:15 24.27386 54.36404 21048 ft 381 kts 291°
2026-05-04 12:15 24.28387 54.33730 20927 ft 380 kts 293°
2026-05-04 12:15 24.29702 54.31214 20803 ft 381 kts 306°
2026-05-04 12:16 24.31562 54.29151 20686 ft 381 kts 321°
2026-05-04 12:16 24.33880 54.27747 20564 ft 384 kts 339°
2026-05-04 12:16 24.36498 54.27092 20141 ft 388 kts 354°
2026-05-04 12:16 24.39127 54.27297 19987 ft 387 kts 11°
2026-05-04 12:17 24.41659 54.28349 19878 ft 391 kts 27°
2026-05-04 12:17 24.43873 54.30153 19756 ft 395 kts 44°
2026-05-04 12:17 24.45487 54.32533 19637 ft 397 kts 61°
2026-05-04 12:17 24.46368 54.35409 19386 ft 402 kts 80°
2026-05-04 12:18 24.46374 54.38467 18579 ft 401 kts 99°
2026-05-04 12:18 24.45632 54.41405 17447 ft 401 kts 108°
2026-05-04 12:18 24.44684 54.44283 16205 ft 402 kts 109°
2026-05-04 12:18 24.43706 54.47159 15056 ft 400 kts 109°
2026-05-04 12:19 24.42728 54.50000 14038 ft 396 kts 109°
2026-05-04 12:19 24.41706 54.52796 12908 ft 394 kts 114°
2026-05-04 12:19 24.40169 54.55259 11756 ft 391 kts 135°
2026-05-04 12:19 24.37973 54.56962 10626 ft 387 kts 157°
2026-05-04 12:20 24.35414 54.57667 9548 ft 379 kts 180°
2026-05-04 12:20 24.32923 54.57209 8961 ft 350 kts 207°
2026-05-04 12:20 24.31070 54.55785 8833 ft 307 kts 234°
2026-05-04 12:20 24.30184 54.53825 8730 ft 278 kts 265°
2026-05-04 12:21 24.30381 54.51780 8624 ft 270 kts 295°
2026-05-04 12:21 24.31506 54.50190 8369 ft 266 kts 324°
2026-05-04 12:21 24.33220 54.49516 8144 ft 269 kts 354°
2026-05-04 12:21 24.35104 54.49584 7895 ft 271 kts
2026-05-04 12:22 24.36938 54.49628 7773 ft 257 kts 354°
2026-05-04 12:22 24.38647 54.49938 7699 ft 250 kts 22°
2026-05-04 12:22 24.39979 54.51212 7571 ft 265 kts 51°
2026-05-04 12:22 24.40533 54.53169 7347 ft 278 kts 85°
2026-05-04 12:23 24.40126 54.55246 7114 ft 286 kts 116°
2026-05-04 12:23 24.38932 54.57003 6897 ft 288 kts 130°
2026-05-04 12:23 24.37607 54.58655 6657 ft 289 kts 129°
2026-05-04 12:23 24.36310 54.60338 6420 ft 288 kts 127°
2026-05-04 12:24 24.35044 54.62039 6204 ft 288 kts 127°
2026-05-04 12:24 24.33793 54.63752 5966 ft 287 kts 126°
2026-05-04 12:24 24.32569 54.65445 5727 ft 284 kts 126°
2026-05-04 12:24 24.31346 54.67148 5489 ft 281 kts 126°
2026-05-04 12:25 24.30143 54.68827 5261 ft 279 kts 127°
2026-05-04 12:25 24.28948 54.70498 5070 ft 277 kts 127°
2026-05-04 12:25 24.27755 54.72163 4945 ft 278 kts 127°
2026-05-04 12:25 24.26558 54.73832 4827 ft 278 kts 127°
2026-05-04 12:26 24.25365 54.75501 4711 ft 277 kts 127°
2026-05-04 12:26 24.24180 54.77158 4603 ft 275 kts 128°
2026-05-04 12:26 24.23043 54.78811 4473 ft 272 kts 122°
2026-05-04 12:26 24.22426 54.80739 4354 ft 265 kts 89°
2026-05-04 12:27 24.22796 54.82626 4233 ft 257 kts 57°
2026-05-04 12:27 24.23983 54.84060 4107 ft 250 kts 28°
2026-05-04 12:27 24.25556 54.84650 4013 ft 236 kts
2026-05-04 12:27 24.27143 54.84834 3892 ft 225 kts
2026-05-04 12:28 24.28613 54.85339 3773 ft 219 kts 15°
2026-05-04 12:28 24.30089 54.85620 3659 ft 213 kts 352°
2026-05-04 12:28 24.31453 54.85071 3554 ft 207 kts 321°
2026-05-04 12:28 24.32317 54.83865 3434 ft 208 kts 293°
2026-05-04 12:29 24.32659 54.82319 3295 ft 208 kts 279°
2026-05-04 12:29 24.32850 54.80795 3227 ft 195 kts 279°
2026-05-04 12:29 24.33197 54.79408 2970 ft 185 kts 300°
2026-05-04 12:29 24.33918 54.78271 2649 ft 182 kts 308°
2026-05-04 12:30 24.34740 54.77220 2359 ft 182 kts 310°
2026-05-04 12:30 24.35503 54.76136 2137 ft 176 kts 306°
2026-05-04 12:30 24.36219 54.75107 1896 ft 163 kts 309°
2026-05-04 12:30 24.36894 54.74168 1693 ft 150 kts 309°
2026-05-04 12:31 24.37514 54.73299 1527 ft 141 kts 308°
2026-05-04 12:31 24.38115 54.72453 1341 ft 142 kts 307°
2026-05-04 12:31 24.38726 54.71593 1149 ft 144 kts 306°
2026-05-04 12:31 24.39339 54.70728 964 ft 144 kts 306°
2026-05-04 12:32 24.39934 54.69851 773 ft 143 kts 306°
2026-05-04 12:32 24.41154 54.68179 394 ft 140 kts 308°
2026-05-04 12:32 24.41747 54.67338 278 ft 141 kts 308°
2026-05-04 12:33 24.42349 54.66487 108 ft 140 kts 306°
2026-05-04 12:33 24.42827 54.65801 88 ft 127 kts 307°
2026-05-04 12:33 24.43250 54.65198 89 ft 67 kts 309°
2026-05-04 12:33 24.43554 54.64892 87 ft 47 kts 338°
2026-05-04 12:34 24.43621 54.64864 86 ft 1 kts 338°
2026-05-04 12:34 24.43693 54.64831 87 ft 13 kts 338°
2026-05-04 12:34 24.43749 54.64793 87 ft 10 kts 318°
2026-05-04 12:34 24.43805 54.64756 86 ft 9 kts 357°
2026-05-04 12:35 24.43869 54.64771 87 ft 10 kts 352°
2026-05-04 12:35 24.43914 54.64728 87 ft 9 kts 307°
2026-05-04 12:35 24.43956 54.64670 87 ft 11 kts 308°
2026-05-04 12:35 24.44006 54.64603 87 ft 12 kts 309°
2026-05-04 12:36 24.44043 54.64552 85 ft 13 kts 309°
2026-05-04 12:36 24.44129 54.64437 87 ft 16 kts 310°
2026-05-04 12:36 24.44191 54.64358 88 ft 4 kts 345°
2026-05-04 12:36 24.44203 54.64367 87 ft 4 kts 37°
2026-05-04 12:37 24.44232 54.64391 85 ft 7 kts 38°
2026-05-04 12:37 24.44275 54.64419 86 ft 6 kts
2026-05-04 12:37 24.44306 54.64403 86 ft 5 kts 321°
2026-05-04 12:37 24.44332 54.64368 86 ft 7 kts 305°
2026-05-04 12:38 24.44365 54.64320 85 ft 9 kts 307°
2026-05-04 12:38 24.44411 54.64265 85 ft 10 kts 326°
2026-05-04 12:38 24.44483 54.64231 85 ft 12 kts 338°
2026-05-04 12:38 24.44568 54.64193 87 ft 14 kts 338°
2026-05-04 12:39 24.44665 54.64153 85 ft 16 kts 341°
2026-05-04 12:39 24.44761 54.64089 86 ft 17 kts 308°
2026-05-04 12:39 24.44808 54.63983 86 ft 11 kts 256°
2026-05-04 12:39 24.44771 54.63915 84 ft 11 kts 242°
2026-05-04 12:40 24.44749 54.63849 85 ft 7 kts 237°
2026-05-04 12:40 24.44719 54.63793 87 ft 9 kts 242°
2026-05-04 12:40 24.44697 54.63722 85 ft 11 kts 252°
2026-05-04 12:40 24.44703 54.63663 87 ft 6 kts 317°
2026-05-04 12:41 24.44729 54.63661 86 ft 4 kts 12°
2026-05-04 12:41 24.44769 54.63671 85 ft 7 kts 13°
2026-05-04 12:41 24.44777 54.63673 84 ft 1 kts 13°
2026-05-04 12:41 24.44784 54.63674 83 ft 0 kts 13°